Canadian, TX

12:23 AM CDT on August 20, 2017 (GMT -0500)
Hemphill County

Weather History for KHHF - November, 2013

Change the Weather History Date:

Tuesday, November 19, 2013

  Actual Average (KPPA) Record (KPPA)
Temperature  
Mean Temperature 50 °F -  
Max Temperature 67 °F 58 °F 75 °F (1976)
Min Temperature 34 °F 33 °F 19 °F (1969)
Degree Days  
Heating Degree Days 14    
Moisture  
Dew Point 34 °F    
Average Humidity 50    
Maximum Humidity 73    
Minimum Humidity 31    
Precipitation  
Precipitation 0.00 in - - ()
Sea Level Pressure  
Sea Level Pressure 29.94 in    
Wind  
Wind Speed 10 mph (South)    
Max Wind Speed 29 mph    
Max Gust Speed 38 mph    
Visibility 10 miles    
Events      
Averages and records for this station are not official NWS values.
T = Trace of Precipitation, MM = Missing Value Source: NWS Daily Summary

Daily Weather History Graph

Daily Weather History Graph

Search for Another Location

Airport or City:

Trip Planner

Search our weather history database for the weather conditions in past years. The results will help you decide how hot, cold, wet, or windy it might be!

Date:

Astronomy

Nov. 19, 2013 Rise Set
Actual Time 7:22 AM CST 5:31 PM CST
Civil Twilight 6:54 AM CST 5:59 PM CST
Nautical Twilight 6:23 AM CST 6:30 PM CST
Astronomical Twilight 5:53 AM CST 7:00 PM CST
Moon 7:24 PM CST (11/19) 9:02 AM CST (11/19)
Length of Visible Light 11h 04m
Length of Day
10h 09m
Waning Gibbous, 96% of the Moon is Illuminated
Nov 19
Waning Gibbous
Nov 25
Last Quarter
Dec 2
New
Dec 9
First Quarter
Dec 17
Full

Hourly Weather History & Observations

Time (CST) Temp. Windchill Dew Point Humidity Pressure Visibility Wind Dir Wind Speed Gust Speed Precip Events Conditions
12:15 AM 42.8 °F 41.1 °F 24.8 °F 49% 30.16 in 10.0 mi SSE 3.5 mph - N/A   Clear
12:35 AM 44.6 °F 43.1 °F 25.5 °F 47% 30.14 in 10.0 mi SSE 3.5 mph - N/A   Clear
12:55 AM 40.3 °F - 25.7 °F 56% 30.14 in 10.0 mi Calm Calm - N/A   Clear
1:15 AM 40.3 °F - 25.7 °F 56% 30.14 in 10.0 mi Calm Calm - N/A   Clear
1:35 AM 40.5 °F - 25.7 °F 56% 30.13 in 10.0 mi Calm Calm - N/A   Clear
1:55 AM 39.7 °F - 25.9 °F 58% 30.12 in 10.0 mi Calm Calm - N/A   Clear
2:15 AM 41.5 °F 39.6 °F 26.6 °F 55% 30.12 in 10.0 mi North 3.5 mph - N/A   Clear
2:35 AM 43.5 °F - 26.6 °F 51% 30.12 in 10.0 mi Calm Calm - N/A   Clear
2:55 AM 42.8 °F 39.3 °F 27.0 °F 54% 30.12 in 10.0 mi North 5.8 mph - N/A   Clear
3:15 AM 41.4 °F 39.4 °F 27.1 °F 57% 30.12 in 10.0 mi NE 3.5 mph - N/A   Clear
3:35 AM 42.3 °F - 27.5 °F 56% 30.11 in 10.0 mi Calm Calm - N/A   Clear
3:55 AM 41.4 °F 39.4 °F 27.9 °F 59% 30.10 in 10.0 mi SE 3.5 mph - N/A   Clear
4:15 AM 40.1 °F - 27.9 °F 62% 30.10 in 10.0 mi Calm Calm - N/A   Clear
4:35 AM 39.9 °F - 27.5 °F 61% 30.09 in 10.0 mi Calm Calm - N/A   Clear
4:55 AM 40.6 °F - 27.9 °F 60% 30.09 in 10.0 mi Calm Calm - N/A   Clear
5:15 AM 39.9 °F 36.7 °F 27.5 °F 61% 30.08 in 10.0 mi ESE 4.6 mph - N/A   Clear
5:35 AM 38.1 °F 34.6 °F 27.1 °F 65% 30.07 in 10.0 mi ESE 4.6 mph - N/A   Clear
5:55 AM 38.5 °F 35.0 °F 28.2 °F 67% 30.06 in 10.0 mi ESE 4.6 mph - N/A   Clear
6:15 AM 40.8 °F 37.8 °F 28.0 °F 60% 30.06 in 10.0 mi East 4.6 mph - N/A   Clear
6:35 AM 36.7 °F - 27.1 °F 68% 30.06 in 10.0 mi Calm Calm - N/A   Clear
6:55 AM 38.3 °F 34.8 °F 27.9 °F 66% 30.05 in 10.0 mi ESE 4.6 mph - N/A   Clear
7:15 AM 34.3 °F - 26.6 °F 73% 30.06 in 10.0 mi Calm Calm - N/A   Clear
7:35 AM 35.6 °F - 27.3 °F 72% 30.06 in 10.0 mi Calm Calm - N/A   Clear
7:55 AM 37.8 °F 35.3 °F 28.2 °F 68% 30.05 in 10.0 mi South 3.5 mph - N/A   Clear
8:15 AM 46.4 °F 41.9 °F 30.7 °F 54% 30.05 in 10.0 mi South 9.2 mph - N/A   Clear
8:35 AM 48.7 °F - 30.7 °F 50% 30.05 in 10.0 mi South 6.9 mph - N/A   Clear
8:55 AM 51.1 °F - 30.4 °F 45% 30.05 in 10.0 mi South 10.4 mph 18.4 mph N/A   Clear
9:15 AM 52.7 °F - 30.0 °F 42% 30.04 in 10.0 mi South 10.4 mph 16.1 mph N/A   Clear
9:35 AM 54.9 °F - 29.3 °F 38% 30.02 in 10.0 mi South 19.6 mph 25.3 mph N/A   Clear
9:55 AM 55.9 °F - 29.3 °F 36% 30.01 in 10.0 mi South 21.9 mph 31.1 mph N/A   Clear
10:15 AM 56.3 °F - 29.8 °F 36% 30.01 in 10.0 mi South 25.3 mph 32.2 mph N/A   Clear
10:35 AM 58.1 °F - 30.4 °F 35% 30.00 in 10.0 mi SSW 26.5 mph 36.8 mph N/A   Clear
10:55 AM 59.7 °F - 31.6 °F 35% 29.99 in 10.0 mi South 28.8 mph 38.0 mph N/A   Clear
11:15 AM 60.8 °F - 32.0 °F 34% 29.98 in 10.0 mi South 28.8 mph 36.8 mph N/A   Clear
11:35 AM 61.3 °F - 32.0 °F 33% 29.97 in 10.0 mi South 20.7 mph 32.2 mph N/A   Clear
11:55 AM 62.6 °F - 32.4 °F 32% 29.95 in 10.0 mi South 23.0 mph 32.2 mph N/A   Clear
12:15 PM 63.5 °F - 33.1 °F 32% 29.93 in 10.0 mi South 25.3 mph 32.2 mph N/A   Clear
12:35 PM 64.4 °F - 34.0 °F 32% 29.91 in 10.0 mi South 20.7 mph 32.2 mph N/A   Clear
12:55 PM 65.1 °F - 34.0 °F 31% 29.90 in 10.0 mi South 21.9 mph 29.9 mph N/A   Clear
1:15 PM 65.7 °F - 34.7 °F 32% 29.88 in 10.0 mi South 27.6 mph 34.5 mph N/A   Clear
1:35 PM 66.2 °F - 35.2 °F 32% 29.87 in 10.0 mi South 24.2 mph 34.5 mph N/A   Clear
1:55 PM 66.7 °F - 36.0 °F 32% 29.86 in 10.0 mi South 23.0 mph 34.5 mph N/A   Clear
2:15 PM 67.5 °F - 35.8 °F 31% 29.84 in 10.0 mi South 25.3 mph 38.0 mph N/A   Clear
2:35 PM 67.5 °F - 36.0 °F 31% 29.83 in 10.0 mi South 21.9 mph 32.2 mph N/A   Clear
2:55 PM 66.2 °F - 37.0 °F 34% 29.83 in 10.0 mi South 19.6 mph 28.8 mph N/A   Clear
3:15 PM 66.6 °F - 38.7 °F 36% 29.81 in 10.0 mi South 23.0 mph 31.1 mph N/A   Clear
3:35 PM 66.7 °F - 39.4 °F 37% 29.81 in 10.0 mi South 26.5 mph 33.4 mph N/A   Clear
3:55 PM 67.3 °F - 42.1 °F 40% 29.80 in 10.0 mi South 24.2 mph 33.4 mph N/A   Clear
4:15 PM 66.6 °F - 45.1 °F 46% 29.80 in 10.0 mi South 23.0 mph 32.2 mph N/A   Clear
4:35 PM 65.7 °F - 45.1 °F 47% 29.80 in 10.0 mi South 24.2 mph 33.4 mph N/A   Clear
4:55 PM 63.9 °F - 45.0 °F 50% 29.81 in 10.0 mi South 18.4 mph 29.9 mph N/A   Clear
5:15 PM 63.3 °F - 44.8 °F 51% 29.81 in 10.0 mi South 13.8 mph 25.3 mph N/A   Clear
5:35 PM 62.6 °F - 44.6 °F 52% 29.80 in 10.0 mi South 20.7 mph 26.5 mph N/A   Clear
5:55 PM 62.1 °F - 44.4 °F 52% 29.80 in 10.0 mi South 18.4 mph 27.6 mph N/A   Clear
6:15 PM 61.7 °F - 44.6 °F 53% 29.80 in 10.0 mi South 21.9 mph 31.1 mph N/A   Clear
6:35 PM 61.0 °F - 44.6 °F 55% 29.81 in 10.0 mi South 17.3 mph 26.5 mph N/A   Clear
6:55 PM 60.1 °F - 43.9 °F 55% 29.81 in 10.0 mi South 16.1 mph 28.8 mph N/A   Clear
7:15 PM 59.4 °F - 42.8 °F 54% 29.81 in 10.0 mi South 20.7 mph 27.6 mph N/A   Clear
7:35 PM 58.5 °F - 41.5 °F 53% 29.82 in 10.0 mi South 17.3 mph 27.6 mph N/A   Clear
7:55 PM 57.4 °F - 41.0 °F 54% 29.82 in 10.0 mi South 16.1 mph 26.5 mph N/A   Clear
8:15 PM 57.0 °F - 41.0 °F 55% 29.82 in 10.0 mi South 17.3 mph 25.3 mph N/A   Clear
8:35 PM 56.3 °F - 40.6 °F 56% 29.82 in 10.0 mi South 19.6 mph 25.3 mph N/A   Clear
8:55 PM 56.3 °F - 40.6 °F 56% 29.81 in 10.0 mi South 21.9 mph 27.6 mph N/A   Clear
9:15 PM 56.8 °F - 41.2 °F 56% 29.81 in 10.0 mi South 25.3 mph 33.4 mph N/A   Clear
9:35 PM 57.2 °F - 41.4 °F 55% 29.80 in 10.0 mi South 26.5 mph 36.8 mph N/A   Clear
9:55 PM 57.4 °F - 41.5 °F 56% 29.80 in 10.0 mi South 26.5 mph 34.5 mph N/A   Clear
10:15 PM 56.3 °F - 41.2 °F 57% 29.80 in 10.0 mi South 26.5 mph 34.5 mph N/A   Clear
10:35 PM 55.6 °F - 41.0 °F 58% 29.80 in 10.0 mi South 26.5 mph 34.5 mph N/A   Clear
10:55 PM 54.9 °F - 40.5 °F 58% 29.79 in 10.0 mi South 23.0 mph 33.4 mph N/A   Clear
11:15 PM 54.9 °F - 40.6 °F 59% 29.79 in 10.0 mi South 25.3 mph 31.1 mph N/A   Clear
11:35 PM 54.9 °F - 40.5 °F 58% 29.78 in 10.0 mi South 20.7 mph 33.4 mph N/A   Clear
11:55 PM 54.9 °F - 41.0 °F 60% 29.78 in 10.0 mi South 24.2 mph 33.4 mph N/A   Clear